Flag for Venezuela Weather past 2 weeks in Caracas, Venezuela

Now
77 °F

Clear.


Feels Like: 79 °F
Forecast: 64 / 74 °F
Wind: 3 mph from Northeast

Location: Caracas / Maiquetia Aerop. Intl. Simon Bolivar

Current Time: Jul 28, 2014 at 4:54:13 AM

Latest Report: Jul 28, 2014 at 4:30 AM


Visibility: 10 mi

Pressure: 29.95 "Hg

Humidity: 74%

Dew point: 68 °F

Location of CaracasLocation

Historic Weather in Caracas — Graph

°F

Caracas temperature yesterday

Maximum temperature yesterday: 90 °F (at 12:30 PM)
Minimum temperature yesterday: 77 °F (at 4:30 AM)
Average temperature yesterday: 81 °F

Past Weeks' High & Low Weather Summary

 TemperatureHumidityPressure
High90 °F (Jul 15, 2:30 PM)100% (Jul 14, 7:30 AM)30.04 "Hg (Jul 14, 7:30 AM)
Low73 °F (Jul 15, 10:30 PM)55% (Jul 14, 1:30 PM)29.86 "Hg (Jul 24, 2:30 PM)
Average81 °F75%29.96 "Hg
* Reported Jul 13 3:30 AM — Jul 28 3:30 AM, Caracas, Weather by CustomWeather, © 2014

Note: Actual official high and low records may vary slightly from our data, if they occured in-between our weather recording intervals... More about our weather records

Advertising

Caracas weather history for previous 24 hours

 ConditionsComfort  
Time TempWeatherWind HumidityBarometerVisibility
3:30 AM
Jul 28
77 °FClear.1 mph79%29.95 "Hg10 mi
2:30 AM77 °FClear.No wind83%29.95 "Hg10 mi
1:30 AM79 °FClear.3 mph79%29.98 "Hg10 mi
12:30 AM79 °FClear.No wind84%30.01 "Hg10 mi
11:30 PM
Jul 27
79 °FClear.2 mph84%30.01 "Hg10 mi
10:30 PM79 °FClear.No wind84%29.98 "Hg10 mi
9:30 PM79 °FClear.1 mph79%29.95 "Hg10 mi
8:30 PM79 °FClear.No wind84%29.95 "Hg10 mi
7:30 PM79 °FClear.2 mph84%29.95 "Hg10 mi
6:30 PM82 °FPassing clouds.5 mph70%29.92 "HgN/A
5:30 PM82 °FPassing clouds.1 mph74%29.92 "HgN/A
4:30 PM82 °FPassing clouds.3 mph74%29.89 "HgN/A
3:30 PM86 °FScattered clouds.2 mph66%29.98 "HgN/A
2:30 PM84 °FScattered clouds.6 mph70%29.98 "HgN/A
1:30 PM84 °FScattered clouds.3 mph70%29.95 "HgN/A
12:30 PM90 °FScattered clouds.3 mph55%29.98 "HgN/A
11:30 AM88 °FScattered clouds.2 mph62%29.98 "HgN/A
10:30 AM86 °FScattered clouds.1 mph66%29.98 "HgN/A
9:30 AM84 °FScattered clouds.3 mph70%29.98 "HgN/A
8:30 AM84 °FPassing clouds.1 mph70%29.98 "HgN/A
7:30 AM79 °FScattered clouds.No wind79%29.95 "HgN/A
6:30 AM77 °FPassing clouds.2 mph83%29.89 "HgN/A
5:30 AM77 °FPassing clouds.No wind74%29.89 "HgN/A
4:30 AM77 °FPassing clouds.3 mph79%29.92 "HgN/A
Weather by CustomWeather, © 2014

See weather overviewHow to use our weather pages